Regional Weather Roundup
Issued by NWS

Home | Current Version | Previous Version | Text Only | Print | Product List | Glossary On
Versions: 1 2 3 4 5 6 7 8 9 10 11 12 13 14 15 16 17 18 19 20 21 22 23 24 25 26 27 28 29 30 31 32 33 34 35 36 37 38 39 40 41 42 43 44 45 46 47 48 49 50
000
ASUS46 KPQR 130710
RWROR

OREGON REGIONAL WEATHER ROUNDUP
NATIONAL WEATHER SERVICE PORTLAND OR
1200 AM PDT SUN JUL 13 2014

NOTE: "FAIR" INDICATES FEW OR NO CLOUDS BELOW 12,000 FEET WITH
NO SIGNIFICANT WEATHER AND/OR OBSTRUCTIONS TO VISIBILITY.

ORZ001>013-130800-
NORTHWEST OREGON


CITY           SKY/WX    TMP DP  RH WIND       PRES   REMARKS
ASTORIA        CLOUDY    58  55  90 W5        30.13F
NEWPORT        CLOUDY    57  55  94 CALM      30.17F FOG
PORTLAND       CLEAR     73  61  65 N5        30.05R
VANCOUVER WA   CLEAR     74  60  61 VRB3      30.05R
SCAPPOOSE      CLEAR     72  61  68 N5        30.04S
HILLSBORO      CLEAR     70  60  70 NW5       30.05R
AURORA         CLEAR     68  60  75 S3        30.07R
MCMINNVILLE    CLEAR     63  57  81 SW9       30.07R
SALEM          CLEAR     68  57  68 W6        30.07R
CORVALLIS      CLEAR     61  55  82 NW17      30.10R
EUGENE         CLEAR     62  56  80 SW9       30.10R
$$

ORZ021-028-130800-
SOUTHWEST OREGON


CITY           SKY/WX    TMP DP  RH WIND       PRES   REMARKS
NORTH BEND     CLOUDY    57  57 100 N5        30.15F
BROOKINGS      CLOUDY    54  54 100 CALM      30.14R FOG
ROSEBURG       MOCLDY    72  58  61 N6        30.08R
SEXTON SUMMIT  PTCLDY    69  55  60 N12       30.20S
MEDFORD        MOCLDY    83  59  44 W3        30.05S
$$

ORZ009-041-130800-
COLUMBIA GORGE


CITY           SKY/WX    TMP DP  RH WIND       PRES   REMARKS
TROUTDALE      CLEAR     73  62  68 W5        30.03S
THE DALLES     CLEAR     83  61  47 NW15      29.99R
$$

ORZ029>031-042>050-061>064-130800-
EASTERN OREGON


CITY           SKY/WX    TMP DP  RH WIND       PRES   REMARKS
REDMOND        CLEAR     76  41  28 NW8       30.15R
BEND           SUNNY     73  54  49 NW7       30.19R
KLAMATH FALLS  MOCLDY    76  58  53 NW13      30.19R
LAKEVIEW       CLEAR     61  52  72 N12       30.24F
HERMISTON      CLEAR     74  44  34 S8        29.98R
PENDLETON      CLEAR     75  40  28 SE7       30.04S
JOHN DAY       PTSUNNY   73  41  31 SE5       30.20R
MEACHAM        CLEAR     56  49  77 CALM      30.22S
LA GRANDE      CLEAR     70  41  35 CALM      30.13S
BAKER CITY     CLEAR     59  49  69 CALM      30.18R
BURNS          PTCLDY    63  44  50 W7        30.20R
ROME             N/A     71  40  32 SE8       30.17S
ONTARIO        NOT AVBL
$$



USA.gov is the U.S. government's official web portal to all federal, state and local government web resources and services.